When you browse on this site, cookies collect data to enhance your experience and personalize the content and advertising you see.
Visit our Privacy Policy to learn more. By continuing to use the site, you agree to this use of cookies and data.
  • In Hungary
  • List of Countries
  • For 7 days
  • Water Temperature
  • Weather Map
  • News
  • Weather Widgets
  • user-avatar
    Login

    Hourly Weather Balurghat

    Today, 29 February, Saturday

    Time Temperature Precipitation Wind Pressure Humidity
    00:00 +23°C° 0 mm 1 mps 757 mmHg 44%
    01:00 +23°C° 0 mm 1 mps 756 mmHg 45%
    02:00 +21°C° 0 mm 2 mps 756 mmHg 46%
    03:00 +21°C° 0 mm 2 mps 755 mmHg 47%
    04:00 +20°C° 0 mm 2 mps 755 mmHg 49%
    05:00 +21°C° 0 mm 1 mps 755 mmHg 51%
    06:00 +20°C° 0 mm 1 mps 756 mmHg 54%
    07:00 +21°C° 0 mm 2 mps 756 mmHg 49%
    08:00 +24°C° 0 mm 2 mps 757 mmHg 45%
    09:00 +26°C° 0 mm 2 mps 757 mmHg 41%
    10:00 +27°C° 0 mm 2 mps 757 mmHg 37%
    11:00 +29°C° 0 mm 1 mps 757 mmHg 33%
    12:00 +31°C° 0 mm 1 mps 757 mmHg 30%
    13:00 +31°C° 0 mm 1 mps 756 mmHg 28%
    14:00 +32°C° 0 mm 1 mps 755 mmHg 27%
    15:00 +32°C° 0 mm 1 mps 754 mmHg 25%
    16:00 +31°C° 0 mm 1 mps 754 mmHg 28%
    17:00 +30°C° 0 mm 2 mps 754 mmHg 30%
    18:00 +29°C° 0 mm 2 mps 754 mmHg 32%
    19:00 +28°C° 0 mm 2 mps 755 mmHg 33%
    20:00 +27°C° 0 mm 3 mps 755 mmHg 35%
    21:00 +26°C° 0 mm 3 mps 756 mmHg 36%
    22:00 +25°C° 0 mm 2 mps 756 mmHg 37%
    23:00 +25°C° 0 mm 2 mps 756 mmHg 38%

    Tomorrow, 1 March, Sunday

    Time Temperature Precipitation Wind Pressure Humidity
    00:00 +24°C° 0 mm 1 mps 756 mmHg 39%
    01:00 +24°C° 0 mm 1 mps 755 mmHg 40%
    02:00 +24°C° 0 mm 1 mps 755 mmHg 42%
    03:00 +23°C° 0 mm 1 mps 755 mmHg 43%
    04:00 +23°C° 0 mm 1 mps 755 mmHg 44%
    05:00 +22°C° 0 mm 1 mps 755 mmHg 46%
    06:00 +22°C° 0 mm 1 mps 755 mmHg 47%
    07:00 +24°C° 0 mm 1 mps 756 mmHg 44%
    08:00 +25°C° 0 mm 1 mps 757 mmHg 40%
    09:00 +27°C° 0 mm 1 mps 757 mmHg 36%
    10:00 +29°C° 0 mm 1 mps 757 mmHg 33%
    11:00 +29°C° 0 mm 0 mps 757 mmHg 30%
    12:00 +31°C° 0 mm 0 mps 757 mmHg 27%
    13:00 +33°C° 0 mm 1 mps 756 mmHg 26%
    14:00 +34°C° 0 mm 2 mps 755 mmHg 25%
    15:00 +34°C° 0 mm 2 mps 754 mmHg 23%
    16:00 +32°C° 0 mm 2 mps 753 mmHg 26%
    17:00 +31°C° 0 mm 2 mps 753 mmHg 28%
    18:00 +30°C° 0 mm 2 mps 753 mmHg 30%
    19:00 +29°C° 0 mm 2 mps 754 mmHg 32%
    20:00 +28°C° 0 mm 2 mps 754 mmHg 33%
    21:00 +27°C° 0 mm 2 mps 755 mmHg 35%
    22:00 +27°C° 0 mm 2 mps 755 mmHg 35%
    23:00 +26°C° 0 mm 1 mps 755 mmHg 36%

    Day after tomorrow, 2 March, Monday

    Time Temperature Precipitation Wind Pressure Humidity
    00:00 +26°C° 0 mm 1 mps 754 mmHg 37%
    01:00 +26°C° 0 mm 1 mps 754 mmHg 38%
    02:00 +25°C° 0 mm 1 mps 754 mmHg 39%
    03:00 +23°C° 0 mm 0 mps 754 mmHg 40%
    04:00 +24°C° 0 mm 1 mps 754 mmHg 41%
    05:00 +23°C° 0 mm 1 mps 754 mmHg 43%
    06:00 +23°C° 0 mm 1 mps 754 mmHg 44%
    07:00 +25°C° 0 mm 1 mps 755 mmHg 41%
    08:00 +26°C° 0 mm 1 mps 756 mmHg 37%
    09:00 +28°C° 0 mm 1 mps 756 mmHg 34%
    10:00 +30°C° 0 mm 1 mps 756 mmHg 31%
    11:00 +31°C° 0 mm 2 mps 756 mmHg 28%
    12:00 +34°C° 0 mm 2 mps 756 mmHg 25%
    13:00 +34°C° 0 mm 3 mps 755 mmHg 24%
    14:00 +35°C° 0 mm 3 mps 754 mmHg 23%
    15:00 +35°C° 0 mm 4 mps 753 mmHg 22%
    16:00 +34°C° 0 mm 3 mps 753 mmHg 25%
    17:00 +33°C° 0 mm 3 mps 752 mmHg 27%
    18:00 +31°C° 0 mm 2 mps 752 mmHg 30%
    19:00 +30°C° 0 mm 2 mps 753 mmHg 32%
    20:00 +29°C° 0 mm 1 mps 753 mmHg 34%
    21:00 +28°C° 0 mm 1 mps 754 mmHg 35%
    22:00 +27°C° 0.1 mm 1 mps 754 mmHg 38%
    23:00 +26°C° 0.1 mm 1 mps 754 mmHg 41%

    3 March, Tuesday

    Time Temperature Precipitation Wind Pressure Humidity
    00:00 +25°C° 0.1 mm 1 mps 754 mmHg 43%
    01:00 +25°C° 0.1 mm 1 mps 754 mmHg 46%
    02:00 +24°C° 0.1 mm 1 mps 754 mmHg 49%
    03:00 +24°C° 0.1 mm 1 mps 754 mmHg 52%
    04:00 +24°C° 0.2 mm 1 mps 754 mmHg 52%
    05:00 +24°C° 0.2 mm 1 mps 754 mmHg 53%
    06:00 +24°C° 0.2 mm 1 mps 754 mmHg 54%
    07:00 +25°C° 0.3 mm 1 mps 755 mmHg 51%
    08:00 +26°C° 0.3 mm 2 mps 755 mmHg 49%
    09:00 +27°C° 0.3 mm 2 mps 756 mmHg 47%
    10:00 +29°C° 0 mm 2 mps 756 mmHg 42%
    11:00 +31°C° 0 mm 1 mps 755 mmHg 37%
    12:00 +32°C° 0 mm 1 mps 755 mmHg 33%
    13:00 +33°C° 0 mm 1 mps 754 mmHg 32%
    14:00 +33°C° 0 mm 1 mps 753 mmHg 31%
    15:00 +34°C° 0 mm 2 mps 752 mmHg 30%
    16:00 +32°C° 0 mm 2 mps 751 mmHg 33%
    17:00 +31°C° 0 mm 2 mps 751 mmHg 35%
    18:00 +30°C° 0 mm 2 mps 751 mmHg 38%
    19:00 +29°C° 0 mm 2 mps 752 mmHg 41%
    20:00 +28°C° 0 mm 2 mps 752 mmHg 43%
    21:00 +27°C° 0 mm 1 mps 753 mmHg 46%
    22:00 +27°C° 0 mm 2 mps 753 mmHg 48%
    23:00 +26°C° 0 mm 3 mps 753 mmHg 51%

    4 March, Wednesday

    Time Temperature Precipitation Wind Pressure Humidity
    00:00 +25°C° 0 mm 4 mps 753 mmHg 54%
    01:00 +24°C° 0 mm 3 mps 753 mmHg 60%
    02:00 +22°C° 0 mm 3 mps 753 mmHg 67%
    03:00 +21°C° 0 mm 3 mps 753 mmHg 73%
    04:00 +21°C° 0 mm 3 mps 753 mmHg 75%
    05:00 +20°C° 0 mm 3 mps 753 mmHg 76%
    06:00 +20°C° 0 mm 3 mps 754 mmHg 78%
    07:00 +21°C° 0 mm 3 mps 755 mmHg 73%
    08:00 +23°C° 0 mm 4 mps 755 mmHg 68%
    09:00 +25°C° 0 mm 4 mps 756 mmHg 63%
    10:00 +27°C° 0 mm 4 mps 756 mmHg 56%
    11:00 +29°C° 0 mm 3 mps 756 mmHg 48%
    12:00 +31°C° 0 mm 3 mps 755 mmHg 41%
    13:00 +33°C° 0 mm 3 mps 754 mmHg 35%
    14:00 +34°C° 0 mm 3 mps 753 mmHg 30%
    15:00 +35°C° 0 mm 3 mps 752 mmHg 25%
    16:00 +34°C° 0 mm 2 mps 752 mmHg 27%
    17:00 +32°C° 0 mm 2 mps 752 mmHg 29%
    18:00 +31°C° 0 mm 2 mps 751 mmHg 31%
    19:00 +30°C° 0 mm 2 mps 752 mmHg 34%
    20:00 +29°C° 0 mm 2 mps 753 mmHg 37%
    21:00 +27°C° 0 mm 2 mps 754 mmHg 39%
    22:00 +26°C° 0 mm 2 mps 754 mmHg 48%
    23:00 +25°C° 0 mm 2 mps 754 mmHg 56%

    5 March, Thursday

    Time Temperature Precipitation Wind Pressure Humidity
    00:00 +24°C° 0 mm 2 mps 754 mmHg 64%
    01:00 +24°C° 0 mm 2 mps 754 mmHg 64%
    02:00 +24°C° 0 mm 1 mps 754 mmHg 64%
    03:00 +23°C° 0 mm 1 mps 754 mmHg 65%
    04:00 +23°C° 0 mm 2 mps 754 mmHg 65%
    05:00 +22°C° 0 mm 3 mps 754 mmHg 65%
    06:00 +22°C° 0 mm 3 mps 754 mmHg 66%
    07:00 +23°C° 0 mm 4 mps 755 mmHg 66%
    08:00 +25°C° 0 mm 4 mps 755 mmHg 66%
    09:00 +25°C° 0 mm 4 mps 756 mmHg 66%
    10:00 +27°C° 0 mm 4 mps 756 mmHg 59%
    11:00 +29°C° 0 mm 4 mps 756 mmHg 51%
    12:00 +31°C° 0 mm 3 mps 755 mmHg 43%
    13:00 +33°C° 0 mm 3 mps 754 mmHg 39%
    14:00 +34°C° 0 mm 2 mps 753 mmHg 35%
    15:00 +35°C° 0 mm 2 mps 752 mmHg 31%
    16:00 +34°C° 0 mm 2 mps 752 mmHg 32%
    17:00 +32°C° 0 mm 1 mps 752 mmHg 34%
    18:00 +31°C° 0 mm 1 mps 752 mmHg 35%
    19:00 +30°C° 0 mm 2 mps 753 mmHg 39%
    20:00 +29°C° 0 mm 3 mps 753 mmHg 43%
    21:00 +28°C° 0 mm 4 mps 754 mmHg 47%
    22:00 +27°C° 0 mm 3 mps 754 mmHg 52%
    23:00 +26°C° 0 mm 3 mps 754 mmHg 56%
    Show more